contact:dominique.lefevre@mio.osupytheas.fr, maurice.libes@osupytheas.fr, didier.mallarino@osupytheas.fr
Project:EMSO http://www.emso-fr.org/EMSO-France
Depth: 2436.0 m
Title:EMSO Ligure Ouest : Data MII capteur MICROCAT
DateTime_Computer,Latitude,Longitude,Temperature,Conductivity,Pressure,DateTime_Instrument
DateTime_Computer,Latitude,Longitude,degC,S m-1,dbar,DateTime_Instrument
2019-08-25T00:01:36Z,42.805,6.029,13.2956,4.59959,2469.9,2019-8-25T02:01:58Z
2019-08-25T00:04:40Z,42.805,6.029,13.2956,4.59958,2469.923,2019-8-25T02:05:01Z
2019-08-25T00:07:43Z,42.805,6.029,13.2960,4.59958,2469.937,2019-8-25T02:08:04Z
2019-08-25T00:10:46Z,42.805,6.029,13.2957,4.59964,2469.914,2019-8-25T02:11:07Z
2019-08-25T00:13:49Z,42.805,6.029,13.2958,4.59958,2469.9,2019-8-25T02:14:11Z
2019-08-25T00:16:52Z,42.805,6.029,13.2957,4.59964,2469.9,2019-8-25T02:17:14Z
2019-08-25T00:19:56Z,42.805,6.029,13.2958,4.59963,2469.937,2019-8-25T02:20:17Z
2019-08-25T00:22:59Z,42.805,6.029,13.2953,4.59961,2469.9,2019-8-25T02:23:20Z
2019-08-25T00:26:02Z,42.805,6.029,13.2964,4.59956,2469.937,2019-8-25T02:26:23Z
2019-08-25T00:29:05Z,42.805,6.029,13.2959,4.59958,2469.923,2019-8-25T02:29:27Z
2019-08-25T00:32:08Z,42.805,6.029,13.2959,4.59960,2469.923,2019-8-25T02:32:30Z
2019-08-25T00:35:12Z,42.805,6.029,13.2953,4.59958,2469.9,2019-8-25T02:35:33Z
2019-08-25T00:38:15Z,42.805,6.029,13.2953,4.59958,2469.9,2019-8-25T02:38:36Z
2019-08-25T00:41:18Z,42.805,6.029,13.2957,4.59979,2469.923,2019-8-25T02:41:39Z
2019-08-25T00:44:21Z,42.805,6.029,13.2956,4.59962,2469.937,2019-8-25T02:44:43Z
2019-08-25T00:47:24Z,42.805,6.029,13.2955,4.59968,2469.937,2019-8-25T02:47:46Z
2019-08-25T00:50:28Z,42.805,6.029,13.2957,4.59961,2469.9,2019-8-25T02:50:49Z
2019-08-25T00:53:31Z,42.805,6.029,13.2958,4.59958,2469.9,2019-8-25T02:53:52Z
2019-08-25T00:56:34Z,42.805,6.029,13.2958,4.59966,2469.914,2019-8-25T02:56:55Z
2019-08-25T00:59:37Z,42.805,6.029,13.2957,4.59964,2469.96,2019-8-25T02:59:59Z
2019-08-25T01:02:40Z,42.805,6.029,13.2960,4.59957,2469.96,2019-8-25T03:03:02Z
2019-08-25T01:05:43Z,42.805,6.029,13.2957,4.59958,2469.947,2019-8-25T03:06:05Z
2019-08-25T01:08:47Z,42.805,6.029,13.2955,4.59966,2469.923,2019-8-25T03:09:08Z
2019-08-25T01:11:50Z,42.805,6.029,13.2956,4.59962,2469.923,2019-8-25T03:12:11Z
2019-08-25T01:14:53Z,42.805,6.029,13.2957,4.59963,2469.947,2019-8-25T03:15:14Z
2019-08-25T01:17:56Z,42.805,6.029,13.2958,4.59966,2469.96,2019-8-25T03:18:18Z
2019-08-25T01:20:59Z,42.805,6.029,13.2958,4.59958,2469.96,2019-8-25T03:21:21Z
2019-08-25T01:24:03Z,42.805,6.029,13.2958,4.59960,2469.914,2019-8-25T03:24:24Z
2019-08-25T01:27:06Z,42.805,6.029,13.2955,4.59970,2469.923,2019-8-25T03:27:27Z
2019-08-25T01:30:09Z,42.805,6.029,13.2953,4.59964,2469.914,2019-8-25T03:30:30Z
2019-08-25T01:33:12Z,42.805,6.029,13.2959,4.59974,2469.937,2019-8-25T03:33:34Z
2019-08-25T01:36:15Z,42.805,6.029,13.2958,4.59967,2469.914,2019-8-25T03:36:37Z
2019-08-25T01:39:18Z,42.805,6.029,13.2960,4.59965,2469.96,2019-8-25T03:39:40Z
2019-08-25T01:42:22Z,42.805,6.029,13.2958,4.59972,2469.923,2019-8-25T03:42:43Z
2019-08-25T01:45:25Z,42.805,6.029,13.2960,4.59969,2469.96,2019-8-25T03:45:46Z
2019-08-25T01:48:28Z,42.805,6.029,13.2957,4.59969,2469.937,2019-8-25T03:48:49Z
2019-08-25T01:51:31Z,42.805,6.029,13.2958,4.59973,2469.96,2019-8-25T03:51:53Z
2019-08-25T01:54:34Z,42.805,6.029,13.2959,4.59961,2469.937,2019-8-25T03:54:56Z
2019-08-25T01:57:38Z,42.805,6.029,13.2957,4.59971,2469.923,2019-8-25T03:57:59Z
2019-08-25T02:00:41Z,42.805,6.029,13.2955,4.59962,2469.923,2019-8-25T04:01:02Z
2019-08-25T02:03:44Z,42.805,6.029,13.2956,4.59965,2469.947,2019-8-25T04:04:06Z
2019-08-25T02:06:47Z,42.805,6.029,13.2958,4.59968,2469.947,2019-8-25T04:07:09Z
2019-08-25T02:09:50Z,42.805,6.029,13.2958,4.60009,2469.923,2019-8-25T04:10:12Z
2019-08-25T02:12:54Z,42.805,6.029,13.2956,4.59994,2469.923,2019-8-25T04:13:15Z
2019-08-25T02:15:57Z,42.805,6.029,13.2957,4.59981,2469.96,2019-8-25T04:16:18Z
2019-08-25T02:19:00Z,42.805,6.029,13.2959,4.59972,2469.914,2019-8-25T04:19:21Z
2019-08-25T02:22:03Z,42.805,6.029,13.2955,4.59988,2469.923,2019-8-25T04:22:25Z
2019-08-25T02:25:06Z,42.805,6.029,13.2961,4.59971,2469.937,2019-8-25T04:25:28Z
2019-08-25T02:28:10Z,42.805,6.029,13.2961,4.59964,2469.937,2019-8-25T04:28:31Z
2019-08-25T02:31:13Z,42.805,6.029,13.2961,4.59968,2469.937,2019-8-25T04:31:34Z
2019-08-25T02:34:16Z,42.805,6.029,13.2961,4.59969,2469.876,2019-8-25T04:34:37Z
2019-08-25T02:37:19Z,42.805,6.029,13.2959,4.59961,2469.937,2019-8-25T04:37:41Z
2019-08-25T02:40:22Z,42.805,6.029,13.2957,4.59964,2469.886,2019-8-25T04:40:44Z
2019-08-25T02:43:26Z,42.805,6.029,13.2957,4.59966,2469.9,2019-8-25T04:43:47Z
2019-08-25T02:46:29Z,42.805,6.029,13.2955,4.59964,2469.9,2019-8-25T04:46:50Z
2019-08-25T02:49:32Z,42.805,6.029,13.2961,4.59965,2469.923,2019-8-25T04:49:54Z
2019-08-25T02:52:35Z,42.805,6.029,13.2955,4.59962,2469.876,2019-8-25T04:52:57Z
2019-08-25T02:55:38Z,42.805,6.029,13.2958,4.59964,2469.937,2019-8-25T04:56:00Z
2019-08-25T02:58:42Z,42.805,6.029,13.2957,4.59961,2469.9,2019-8-25T04:59:03Z
2019-08-25T03:01:45Z,42.805,6.029,13.2957,4.59984,2469.937,2019-8-25T05:02:06Z
2019-08-25T03:04:48Z,42.805,6.029,13.2957,4.59978,2469.923,2019-8-25T05:05:09Z
2019-08-25T03:07:51Z,42.805,6.029,13.2961,4.59969,2469.937,2019-8-25T05:08:13Z
2019-08-25T03:10:54Z,42.805,6.029,13.2956,4.59978,2469.937,2019-8-25T05:11:16Z
2019-08-25T03:13:58Z,42.805,6.029,13.2960,4.59966,2469.937,2019-8-25T05:14:19Z
2019-08-25T03:17:01Z,42.805,6.029,13.2967,4.59966,2469.914,2019-8-25T05:17:22Z
2019-08-25T03:20:04Z,42.805,6.029,13.2964,4.59989,2469.937,2019-8-25T05:20:25Z
2019-08-25T03:23:07Z,42.805,6.029,13.2958,4.59969,2469.923,2019-8-25T05:23:29Z
2019-08-25T03:26:10Z,42.805,6.029,13.2961,4.59967,2469.947,2019-8-25T05:26:32Z
2019-08-25T03:29:14Z,42.805,6.029,13.2958,4.59972,2469.914,2019-8-25T05:29:35Z
2019-08-25T03:32:17Z,42.805,6.029,13.2958,4.59973,2469.937,2019-8-25T05:32:38Z
2019-08-25T03:35:20Z,42.805,6.029,13.2958,4.59996,2469.914,2019-8-25T05:35:41Z
2019-08-25T03:38:23Z,42.805,6.029,13.2960,4.60009,2469.876,2019-8-25T05:38:45Z
2019-08-25T03:41:26Z,42.805,6.029,13.2958,4.60006,2469.9,2019-8-25T05:41:48Z
2019-08-25T03:44:30Z,42.805,6.029,13.2960,4.60001,2469.914,2019-8-25T05:44:51Z
2019-08-25T03:47:33Z,42.805,6.029,13.2956,4.60014,2469.9,2019-8-25T05:47:54Z
2019-08-25T03:50:36Z,42.805,6.029,13.2956,4.59988,2469.914,2019-8-25T05:50:57Z
2019-08-25T03:53:39Z,42.805,6.029,13.2954,4.59996,2469.9,2019-8-25T05:54:01Z
2019-08-25T03:56:42Z,42.805,6.029,13.2954,4.59981,2469.876,2019-8-25T05:57:04Z
2019-08-25T03:59:46Z,42.805,6.029,13.2954,4.59999,2469.89,2019-8-25T06:00:07Z
2019-08-25T04:02:49Z,42.805,6.029,13.2957,4.59986,2469.914,2019-8-25T06:03:10Z
2019-08-25T04:05:52Z,42.805,6.029,13.2956,4.60006,2469.914,2019-8-25T06:06:13Z
2019-08-25T04:08:55Z,42.805,6.029,13.2957,4.60007,2469.914,2019-8-25T06:09:17Z
2019-08-25T04:11:58Z,42.805,6.029,13.2963,4.59999,2469.9,2019-8-25T06:12:20Z
2019-08-25T04:15:02Z,42.805,6.029,13.2958,4.60001,2469.89,2019-8-25T06:15:23Z
2019-08-25T04:18:05Z,42.805,6.029,13.2960,4.60002,2469.89,2019-8-25T06:18:27Z
2019-08-25T04:21:09Z,42.805,6.029,13.2958,4.60006,2469.937,2019-8-25T06:21:30Z
2019-08-25T04:24:12Z,42.805,6.029,13.2960,4.60003,2469.937,2019-8-25T06:24:33Z
2019-08-25T04:27:15Z,42.805,6.029,13.2959,4.59998,2469.914,2019-8-25T06:27:37Z
2019-08-25T04:30:18Z,42.805,6.029,13.2960,4.59990,2469.853,2019-8-25T06:30:40Z
2019-08-25T04:33:21Z,42.805,6.029,13.2958,4.59998,2469.914,2019-8-25T06:33:43Z
2019-08-25T04:36:25Z,42.805,6.029,13.2957,4.59981,2469.89,2019-8-25T06:36:46Z
2019-08-25T04:39:28Z,42.805,6.029,13.2958,4.60021,2469.89,2019-8-25T06:39:49Z
2019-08-25T04:42:31Z,42.805,6.029,13.2957,4.60002,2469.89,2019-8-25T06:42:53Z
2019-08-25T04:45:34Z,42.805,6.029,13.2958,4.60031,2469.9,2019-8-25T06:45:56Z
2019-08-25T04:48:37Z,42.805,6.029,13.2957,4.60021,2469.914,2019-8-25T06:48:59Z
2019-08-25T04:51:41Z,42.805,6.029,13.2961,4.60014,2469.914,2019-8-25T06:52:02Z
2019-08-25T04:54:44Z,42.805,6.029,13.2960,4.60015,2469.876,2019-8-25T06:55:05Z
2019-08-25T04:57:47Z,42.805,6.029,13.2956,4.60002,2469.9,2019-8-25T06:58:09Z
2019-08-25T05:00:50Z,42.805,6.029,13.2959,4.59997,2469.876,2019-8-25T07:01:12Z
2019-08-25T05:03:53Z,42.805,6.029,13.2958,4.59996,2469.89,2019-8-25T07:04:15Z
2019-08-25T05:06:57Z,42.805,6.029,13.2957,4.59991,2469.886,2019-8-25T07:07:18Z
2019-08-25T05:10:00Z,42.805,6.029,13.2957,4.59983,2469.914,2019-8-25T07:10:21Z
2019-08-25T05:13:03Z,42.805,6.029,13.2956,4.59981,2469.89,2019-8-25T07:13:25Z
2019-08-25T05:16:06Z,42.805,6.029,13.2955,4.59996,2469.853,2019-8-25T07:16:28Z
2019-08-25T05:19:10Z,42.805,6.029,13.2958,4.59995,2469.867,2019-8-25T07:19:31Z
2019-08-25T05:22:13Z,42.805,6.029,13.2959,4.59991,2469.89,2019-8-25T07:22:34Z
2019-08-25T05:25:16Z,42.805,6.029,13.2960,4.60011,2469.89,2019-8-25T07:25:37Z
2019-08-25T05:28:19Z,42.805,6.029,13.2956,4.60017,2469.89,2019-8-25T07:28:41Z
2019-08-25T05:31:22Z,42.805,6.029,13.2959,4.60019,2469.89,2019-8-25T07:31:44Z
2019-08-25T05:34:26Z,42.805,6.029,13.2959,4.60033,2469.876,2019-8-25T07:34:47Z
2019-08-25T05:37:29Z,42.805,6.029,13.2953,4.60027,2469.89,2019-8-25T07:37:50Z
2019-08-25T05:40:32Z,42.805,6.029,13.2958,4.60052,2469.853,2019-8-25T07:40:54Z
2019-08-25T05:43:35Z,42.805,6.029,13.2958,4.60030,2469.853,2019-8-25T07:43:57Z
2019-08-25T05:46:39Z,42.805,6.029,13.2958,4.60053,2469.806,2019-8-25T07:47:00Z
2019-08-25T05:49:42Z,42.805,6.029,13.2959,4.60043,2469.89,2019-8-25T07:50:03Z
2019-08-25T05:52:45Z,42.805,6.029,13.2959,4.60071,2469.867,2019-8-25T07:53:06Z
2019-08-25T05:55:48Z,42.805,6.029,13.2958,4.60097,2469.876,2019-8-25T07:56:10Z
2019-08-25T05:58:51Z,42.805,6.029,13.2961,4.60038,2469.853,2019-8-25T07:59:13Z
2019-08-25T06:01:55Z,42.805,6.029,13.2964,4.60041,2469.806,2019-8-25T08:02:16Z
2019-08-25T06:04:58Z,42.805,6.029,13.2969,4.60025,2469.83,2019-8-25T08:05:19Z
2019-08-25T06:08:01Z,42.805,6.029,13.2972,4.60037,2469.853,2019-8-25T08:08:23Z
2019-08-25T06:11:04Z,42.805,6.029,13.2958,4.60102,2469.867,2019-8-25T08:11:26Z
2019-08-25T06:14:07Z,42.805,6.029,13.2959,4.60085,2469.89,2019-8-25T08:14:29Z
2019-08-25T06:17:11Z,42.805,6.029,13.2961,4.60077,2469.844,2019-8-25T08:17:32Z
2019-08-25T06:20:14Z,42.805,6.029,13.2964,4.60044,2469.844,2019-8-25T08:20:35Z
2019-08-25T06:23:17Z,42.805,6.029,13.2969,4.60046,2469.853,2019-8-25T08:23:39Z
2019-08-25T06:26:20Z,42.805,6.029,13.2970,4.60039,2469.83,2019-8-25T08:26:42Z
2019-08-25T06:29:24Z,42.805,6.029,13.2991,4.60028,2469.83,2019-8-25T08:29:45Z
2019-08-25T06:32:27Z,42.805,6.029,13.3031,4.60036,2469.844,2019-8-25T08:32:48Z
2019-08-25T06:35:30Z,42.805,6.029,13.2996,4.60021,2469.83,2019-8-25T08:35:52Z
2019-08-25T06:38:33Z,42.805,6.029,13.2983,4.60019,2469.881,2019-8-25T08:38:55Z
2019-08-25T06:41:36Z,42.805,6.029,13.2995,4.60039,2469.867,2019-8-25T08:41:58Z
2019-08-25T06:44:40Z,42.805,6.029,13.2964,4.60053,2469.853,2019-8-25T08:45:01Z
2019-08-25T06:47:43Z,42.805,6.029,13.2962,4.60063,2469.83,2019-8-25T08:48:04Z
2019-08-25T06:50:46Z,42.805,6.029,13.2957,4.60058,2469.867,2019-8-25T08:51:08Z
2019-08-25T06:53:49Z,42.805,6.029,13.2953,4.60080,2469.867,2019-8-25T08:54:11Z
2019-08-25T06:56:53Z,42.805,6.029,13.2957,4.60100,2469.853,2019-8-25T08:57:14Z
2019-08-25T06:59:56Z,42.805,6.029,13.2957,4.60077,2469.83,2019-8-25T09:00:17Z
2019-08-25T07:02:59Z,42.805,6.029,13.2961,4.60097,2469.83,2019-8-25T09:03:20Z
2019-08-25T07:06:02Z,42.805,6.029,13.2959,4.60059,2469.83,2019-8-25T09:06:24Z
2019-08-25T07:09:05Z,42.805,6.029,13.2958,4.60062,2469.83,2019-8-25T09:09:27Z
2019-08-25T07:12:09Z,42.805,6.029,13.2968,4.60018,2469.806,2019-8-25T09:12:30Z
2019-08-25T07:15:12Z,42.805,6.029,13.3022,4.60013,2469.867,2019-8-25T09:15:33Z
2019-08-25T07:18:15Z,42.805,6.029,13.2962,4.60039,2469.844,2019-8-25T09:18:37Z
2019-08-25T07:21:18Z,42.805,6.029,13.2960,4.60054,2469.844,2019-8-25T09:21:40Z
2019-08-25T07:24:22Z,42.805,6.029,13.2970,4.60010,2469.853,2019-8-25T09:24:43Z
2019-08-25T07:27:25Z,42.805,6.029,13.2973,4.60018,2469.844,2019-8-25T09:27:46Z
2019-08-25T07:30:28Z,42.805,6.029,13.2959,4.60085,2469.844,2019-8-25T09:30:49Z
2019-08-25T07:33:31Z,42.805,6.029,13.2979,4.60044,2469.821,2019-8-25T09:33:53Z
2019-08-25T07:36:34Z,42.805,6.029,13.2961,4.60033,2469.853,2019-8-25T09:36:56Z
2019-08-25T07:39:38Z,42.805,6.029,13.2973,4.60040,2469.844,2019-8-25T09:39:59Z
2019-08-25T07:42:41Z,42.805,6.029,13.2996,4.60042,2469.844,2019-8-25T09:43:02Z
2019-08-25T07:45:44Z,42.805,6.029,13.2968,4.60021,2469.821,2019-8-25T09:46:06Z
2019-08-25T07:48:47Z,42.805,6.029,13.2967,4.60013,2469.83,2019-8-25T09:49:09Z
2019-08-25T07:51:51Z,42.805,6.029,13.2964,4.60027,2469.83,2019-8-25T09:52:12Z
2019-08-25T07:54:54Z,42.805,6.029,13.2956,4.60047,2469.83,2019-8-25T09:55:15Z
2019-08-25T07:57:57Z,42.805,6.029,13.2974,4.60013,2469.821,2019-8-25T09:58:19Z
2019-08-25T08:01:00Z,42.805,6.029,13.2965,4.60011,2469.853,2019-8-25T10:01:22Z
2019-08-25T08:04:04Z,42.805,6.029,13.2973,4.60023,2469.83,2019-8-25T10:04:25Z
2019-08-25T08:07:07Z,42.805,6.029,13.2987,4.60007,2469.821,2019-8-25T10:07:28Z
2019-08-25T08:10:10Z,42.805,6.029,13.3006,4.59998,2469.83,2019-8-25T10:10:32Z
2019-08-25T08:13:13Z,42.805,6.029,13.3001,4.60027,2469.844,2019-8-25T10:13:35Z
2019-08-25T08:16:16Z,42.805,6.029,13.3028,4.60020,2469.83,2019-8-25T10:16:38Z
2019-08-25T08:19:20Z,42.805,6.029,13.3028,4.59995,2469.83,2019-8-25T10:19:41Z
2019-08-25T08:22:23Z,42.805,6.029,13.3031,4.59999,2469.867,2019-8-25T10:22:44Z
2019-08-25T08:25:26Z,42.805,6.029,13.3028,4.60001,2469.83,2019-8-25T10:25:48Z
2019-08-25T08:28:30Z,42.805,6.029,13.3021,4.60003,2469.89,2019-8-25T10:28:51Z
2019-08-25T08:31:33Z,42.805,6.029,13.3029,4.60008,2469.821,2019-8-25T10:31:54Z
2019-08-25T08:34:36Z,42.805,6.029,13.3029,4.59991,2469.821,2019-8-25T10:34:57Z
2019-08-25T08:37:39Z,42.805,6.029,13.3019,4.59998,2469.853,2019-8-25T10:38:01Z
2019-08-25T08:40:42Z,42.805,6.029,13.3019,4.60005,2469.821,2019-8-25T10:41:04Z
2019-08-25T08:43:46Z,42.805,6.029,13.3033,4.60011,2469.83,2019-8-25T10:44:07Z
2019-08-25T08:46:49Z,42.805,6.029,13.3030,4.59999,2469.821,2019-8-25T10:47:10Z
2019-08-25T08:49:52Z,42.805,6.029,13.3028,4.60009,2469.797,2019-8-25T10:50:14Z
2019-08-25T08:52:55Z,42.805,6.029,13.3046,4.60006,2469.844,2019-8-25T10:53:17Z
2019-08-25T08:55:59Z,42.805,6.029,13.3039,4.60001,2469.806,2019-8-25T10:56:20Z
2019-08-25T08:59:02Z,42.805,6.029,13.3041,4.59991,2469.853,2019-8-25T10:59:23Z
2019-08-25T09:02:05Z,42.805,6.029,13.3039,4.60013,2469.83,2019-8-25T11:02:27Z
2019-08-25T09:05:08Z,42.805,6.029,13.3043,4.59992,2469.821,2019-8-25T11:05:30Z
2019-08-25T09:08:12Z,42.805,6.029,13.3045,4.59991,2469.867,2019-8-25T11:08:33Z
2019-08-25T09:11:15Z,42.805,6.029,13.3028,4.59988,2469.844,2019-8-25T11:11:36Z
2019-08-25T09:14:18Z,42.805,6.029,13.3024,4.59988,2469.83,2019-8-25T11:14:39Z
2019-08-25T09:17:21Z,42.805,6.029,13.3021,4.60004,2469.821,2019-8-25T11:17:43Z
2019-08-25T09:20:25Z,42.805,6.029,13.3031,4.59991,2469.89,2019-8-25T11:20:46Z
2019-08-25T09:23:28Z,42.805,6.029,13.3032,4.59997,2469.844,2019-8-25T11:23:49Z
2019-08-25T09:26:31Z,42.805,6.029,13.3031,4.60001,2469.844,2019-8-25T11:26:53Z
2019-08-25T09:29:34Z,42.805,6.029,13.3062,4.59996,2469.83,2019-8-25T11:29:56Z
2019-08-25T09:32:38Z,42.805,6.029,13.3011,4.60001,2469.844,2019-8-25T11:32:59Z
2019-08-25T09:35:41Z,42.805,6.029,13.3014,4.59997,2469.853,2019-8-25T11:36:02Z
2019-08-25T09:38:44Z,42.805,6.029,13.3014,4.59995,2469.853,2019-8-25T11:39:06Z
2019-08-25T09:41:47Z,42.805,6.029,13.3004,4.59995,2469.821,2019-8-25T11:42:09Z
2019-08-25T09:44:51Z,42.805,6.029,13.3021,4.59979,2469.844,2019-8-25T11:45:12Z
2019-08-25T09:47:54Z,42.805,6.029,13.3027,4.60001,2469.844,2019-8-25T11:48:15Z
2019-08-25T09:50:57Z,42.805,6.029,13.3013,4.60000,2469.867,2019-8-25T11:51:18Z
2019-08-25T09:54:00Z,42.805,6.029,13.3009,4.60002,2469.821,2019-8-25T11:54:22Z
2019-08-25T09:57:03Z,42.805,6.029,13.3025,4.59993,2469.83,2019-8-25T11:57:25Z
2019-08-25T10:00:07Z,42.805,6.029,13.3018,4.59997,2469.844,2019-8-25T12:00:28Z
2019-08-25T10:03:10Z,42.805,6.029,13.3025,4.59997,2469.844,2019-8-25T12:03:31Z
2019-08-25T10:06:13Z,42.805,6.029,13.3024,4.60011,2469.853,2019-8-25T12:06:35Z
2019-08-25T10:09:16Z,42.805,6.029,13.3021,4.59993,2469.821,2019-8-25T12:09:38Z
2019-08-25T10:12:20Z,42.805,6.029,13.3026,4.59995,2469.844,2019-8-25T12:12:41Z
2019-08-25T10:15:23Z,42.805,6.029,13.3014,4.59991,2469.844,2019-8-25T12:15:44Z
2019-08-25T10:18:26Z,42.805,6.029,13.3006,4.59988,2469.853,2019-8-25T12:18:48Z
2019-08-25T10:21:29Z,42.805,6.029,13.3015,4.59993,2469.867,2019-8-25T12:21:51Z
2019-08-25T10:24:33Z,42.805,6.029,13.3006,4.59996,2469.844,2019-8-25T12:24:54Z
2019-08-25T10:27:36Z,42.805,6.029,13.3015,4.59992,2469.844,2019-8-25T12:27:57Z
2019-08-25T10:30:39Z,42.805,6.029,13.3008,4.59994,2469.853,2019-8-25T12:31:01Z
2019-08-25T10:33:43Z,42.805,6.029,13.3024,4.59990,2469.867,2019-8-25T12:34:04Z
2019-08-25T10:36:46Z,42.805,6.029,13.3021,4.60009,2469.844,2019-8-25T12:37:07Z
2019-08-25T10:39:49Z,42.805,6.029,13.3014,4.59994,2469.844,2019-8-25T12:40:11Z
2019-08-25T10:42:52Z,42.805,6.029,13.3034,4.59996,2469.83,2019-8-25T12:43:14Z
2019-08-25T10:45:56Z,42.805,6.029,13.3025,4.59988,2469.89,2019-8-25T12:46:17Z
2019-08-25T10:48:59Z,42.805,6.029,13.3002,4.59997,2469.853,2019-8-25T12:49:20Z
2019-08-25T10:52:02Z,42.805,6.029,13.3006,4.59988,2469.89,2019-8-25T12:52:23Z
2019-08-25T10:55:05Z,42.805,6.029,13.3004,4.60001,2469.867,2019-8-25T12:55:27Z
2019-08-25T10:58:08Z,42.805,6.029,13.3005,4.59988,2469.853,2019-8-25T12:58:30Z
2019-08-25T11:01:12Z,42.805,6.029,13.3037,4.59997,2469.83,2019-8-25T13:01:33Z
2019-08-25T11:04:15Z,42.805,6.029,13.3012,4.59982,2469.867,2019-8-25T13:04:36Z
2019-08-25T11:07:18Z,42.805,6.029,13.3009,4.59980,2469.853,2019-8-25T13:07:40Z
2019-08-25T11:10:21Z,42.805,6.029,13.2999,4.59994,2469.89,2019-8-25T13:10:43Z
2019-08-25T11:13:24Z,42.805,6.029,13.3030,4.59993,2469.867,2019-8-25T13:13:46Z
2019-08-25T11:16:28Z,42.805,6.029,13.3010,4.59996,2469.853,2019-8-25T13:16:49Z
2019-08-25T11:19:31Z,42.805,6.029,13.3008,4.59993,2469.89,2019-8-25T13:19:52Z
2019-08-25T11:22:34Z,42.805,6.029,13.3013,4.59991,2469.853,2019-8-25T13:22:56Z
2019-08-25T11:25:37Z,42.805,6.029,13.3009,4.59999,2469.89,2019-8-25T13:25:59Z
2019-08-25T11:28:41Z,42.805,6.029,13.3014,4.60002,2469.876,2019-8-25T13:29:02Z
2019-08-25T11:31:44Z,42.805,6.029,13.3012,4.60001,2469.89,2019-8-25T13:32:05Z
2019-08-25T11:34:47Z,42.805,6.029,13.3015,4.60006,2469.89,2019-8-25T13:35:08Z
2019-08-25T11:37:50Z,42.805,6.029,13.3003,4.60011,2469.876,2019-8-25T13:38:12Z
2019-08-25T11:40:53Z,42.805,6.029,13.3008,4.59996,2469.853,2019-8-25T13:41:15Z
2019-08-25T11:43:57Z,42.805,6.029,13.3010,4.59995,2469.876,2019-8-25T13:44:18Z
2019-08-25T11:47:00Z,42.805,6.029,13.2991,4.60009,2469.9,2019-8-25T13:47:21Z
2019-08-25T11:50:03Z,42.805,6.029,13.3021,4.59995,2469.876,2019-8-25T13:50:24Z
2019-08-25T11:53:06Z,42.805,6.029,13.3045,4.59999,2469.876,2019-8-25T13:53:28Z
2019-08-25T11:56:09Z,42.805,6.029,13.3018,4.60003,2469.914,2019-8-25T13:56:31Z
2019-08-25T11:59:13Z,42.805,6.029,13.3004,4.59992,2469.876,2019-8-25T13:59:34Z
2019-08-25T12:02:16Z,42.805,6.029,13.3010,4.59991,2469.914,2019-8-25T14:02:37Z
2019-08-25T12:05:19Z,42.805,6.029,13.3005,4.59996,2469.914,2019-8-25T14:05:40Z
2019-08-25T12:08:22Z,42.805,6.029,13.2993,4.59996,2469.89,2019-8-25T14:08:44Z
2019-08-25T12:11:25Z,42.805,6.029,13.2996,4.60023,2469.89,2019-8-25T14:11:47Z
2019-08-25T12:14:29Z,42.805,6.029,13.2998,4.60015,2469.9,2019-8-25T14:14:50Z
2019-08-25T12:17:32Z,42.805,6.029,13.3010,4.59999,2469.89,2019-8-25T14:17:53Z
2019-08-25T12:20:35Z,42.805,6.029,13.3010,4.59997,2469.89,2019-8-25T14:20:56Z
2019-08-25T12:23:38Z,42.805,6.029,13.3006,4.59997,2469.914,2019-8-25T14:24:00Z
2019-08-25T12:26:41Z,42.805,6.029,13.2990,4.59993,2469.937,2019-8-25T14:27:03Z
2019-08-25T12:29:45Z,42.805,6.029,13.3003,4.59994,2469.9,2019-8-25T14:30:07Z
2019-08-25T12:32:48Z,42.805,6.029,13.3023,4.59996,2469.914,2019-8-25T14:33:10Z
2019-08-25T12:35:52Z,42.805,6.029,13.3018,4.59999,2469.904,2019-8-25T14:36:13Z
2019-08-25T12:38:55Z,42.805,6.029,13.3021,4.60004,2469.876,2019-8-25T14:39:16Z
2019-08-25T12:41:58Z,42.805,6.029,13.3041,4.60009,2469.914,2019-8-25T14:42:20Z
2019-08-25T12:45:01Z,42.805,6.029,13.3032,4.59996,2469.9,2019-8-25T14:45:23Z
2019-08-25T12:48:05Z,42.805,6.029,13.3031,4.60018,2469.923,2019-8-25T14:48:26Z
2019-08-25T12:51:08Z,42.805,6.029,13.3022,4.60016,2469.914,2019-8-25T14:51:29Z
2019-08-25T12:54:11Z,42.805,6.029,13.3014,4.59991,2469.937,2019-8-25T14:54:33Z
2019-08-25T12:57:14Z,42.805,6.029,13.3014,4.59995,2469.927,2019-8-25T14:57:36Z
2019-08-25T13:00:17Z,42.805,6.029,13.3019,4.60009,2469.9,2019-8-25T15:00:39Z
2019-08-25T13:03:21Z,42.805,6.029,13.3018,4.59991,2469.89,2019-8-25T15:03:42Z
2019-08-25T13:06:24Z,42.805,6.029,13.3024,4.59988,2469.914,2019-8-25T15:06:45Z
2019-08-25T13:09:27Z,42.805,6.029,13.2983,4.59997,2469.937,2019-8-25T15:09:49Z
2019-08-25T13:12:30Z,42.805,6.029,13.3022,4.60011,2469.914,2019-8-25T15:12:52Z
2019-08-25T13:15:33Z,42.805,6.029,13.2993,4.60006,2469.914,2019-8-25T15:15:55Z
2019-08-25T13:18:37Z,42.805,6.029,13.3011,4.60060,2469.923,2019-8-25T15:18:58Z
2019-08-25T13:21:40Z,42.805,6.029,13.3003,4.60056,2469.9,2019-8-25T15:22:01Z
2019-08-25T13:24:43Z,42.805,6.029,13.2986,4.60006,2469.923,2019-8-25T15:25:05Z
2019-08-25T13:27:47Z,42.805,6.029,13.2996,4.60014,2469.937,2019-8-25T15:28:08Z
2019-08-25T13:30:50Z,42.805,6.029,13.3019,4.60003,2469.937,2019-8-25T15:31:11Z
2019-08-25T13:33:53Z,42.805,6.029,13.3064,4.59999,2469.937,2019-8-25T15:34:14Z
2019-08-25T13:36:56Z,42.805,6.029,13.3054,4.59999,2469.937,2019-8-25T15:37:18Z
2019-08-25T13:39:59Z,42.805,6.029,13.3039,4.60000,2469.9,2019-8-25T15:40:21Z
2019-08-25T13:43:03Z,42.805,6.029,13.3022,4.60003,2469.937,2019-8-25T15:43:24Z
2019-08-25T13:46:06Z,42.805,6.029,13.3000,4.60007,2469.937,2019-8-25T15:46:27Z
2019-08-25T13:49:09Z,42.805,6.029,13.3001,4.59997,2469.9,2019-8-25T15:49:30Z
2019-08-25T13:52:12Z,42.805,6.029,13.2998,4.59988,2469.937,2019-8-25T15:52:34Z
2019-08-25T13:55:15Z,42.805,6.029,13.3005,4.60017,2469.9,2019-8-25T15:55:37Z
2019-08-25T13:58:19Z,42.805,6.029,13.2978,4.60006,2469.96,2019-8-25T15:58:40Z
2019-08-25T14:01:22Z,42.805,6.029,13.2967,4.60000,2469.937,2019-8-25T16:01:43Z
2019-08-25T14:04:25Z,42.805,6.029,13.2958,4.59981,2469.96,2019-8-25T16:04:47Z
2019-08-25T14:07:28Z,42.805,6.029,13.2954,4.59978,2469.96,2019-8-25T16:07:50Z
2019-08-25T14:10:31Z,42.805,6.029,13.2958,4.59976,2469.937,2019-8-25T16:10:53Z
2019-08-25T14:13:35Z,42.805,6.029,13.2958,4.59976,2469.923,2019-8-25T16:13:56Z
2019-08-25T14:16:38Z,42.805,6.029,13.2955,4.59981,2469.937,2019-8-25T16:16:59Z
2019-08-25T14:19:41Z,42.805,6.029,13.2957,4.59988,2469.947,2019-8-25T16:20:03Z
2019-08-25T14:22:44Z,42.805,6.029,13.2954,4.59990,2469.914,2019-8-25T16:23:06Z
2019-08-25T14:25:48Z,42.805,6.029,13.2958,4.60001,2469.937,2019-8-25T16:26:09Z
2019-08-25T14:28:51Z,42.805,6.029,13.2957,4.60016,2469.923,2019-8-25T16:29:12Z
2019-08-25T14:31:54Z,42.805,6.029,13.2962,4.59983,2469.923,2019-8-25T16:32:15Z
2019-08-25T14:34:57Z,42.805,6.029,13.2958,4.59981,2469.96,2019-8-25T16:35:19Z
2019-08-25T14:38:00Z,42.805,6.029,13.2958,4.59985,2469.947,2019-8-25T16:38:22Z
2019-08-25T14:41:04Z,42.805,6.029,13.2959,4.59979,2469.96,2019-8-25T16:41:25Z
2019-08-25T14:44:07Z,42.805,6.029,13.2957,4.59986,2469.97,2019-8-25T16:44:28Z
2019-08-25T14:47:10Z,42.805,6.029,13.2963,4.59996,2469.937,2019-8-25T16:47:32Z
2019-08-25T14:50:13Z,42.805,6.029,13.2958,4.59993,2469.923,2019-8-25T16:50:35Z
2019-08-25T14:53:17Z,42.805,6.029,13.2959,4.59976,2469.96,2019-8-25T16:53:38Z
2019-08-25T14:56:20Z,42.805,6.029,13.2958,4.59974,2469.96,2019-8-25T16:56:41Z
2019-08-25T14:59:23Z,42.805,6.029,13.2966,4.59978,2469.96,2019-8-25T16:59:44Z
2019-08-25T15:02:26Z,42.805,6.029,13.2955,4.59973,2469.937,2019-8-25T17:02:48Z
2019-08-25T15:05:29Z,42.805,6.029,13.2957,4.59975,2469.97,2019-8-25T17:05:51Z
2019-08-25T15:08:33Z,42.805,6.029,13.2955,4.59980,2469.923,2019-8-25T17:08:54Z
2019-08-25T15:11:36Z,42.805,6.029,13.2961,4.59978,2469.97,2019-8-25T17:11:57Z
2019-08-25T15:14:39Z,42.805,6.029,13.2957,4.59971,2469.97,2019-8-25T17:15:00Z